7 * 24
多渠道服务支持
STARLINK-6354是美国SpaceX公司星链(Starlink)星座的一员,于2023年5月31日发射,属于低轨卫星互联网星座组网卫星。该卫星运行在近地轨道,依托星链大规模部署的星间激光通信技术,可实现全球无缝覆盖的高速网络接入,为偏远地区、海洋、极地等区域提供宽带互联网服务,是SpaceX构建全球太空互联网基础设施的重要组成部分。
美国
(US)
| 数据来源 | 国际轨道数据 |
| 星历时间: | 2026-09-12T15:15:08+0800 9小时前 查看轨道信息 |
| 半长轴: | 6950.208km |
| 偏心率: | 0.0003542 |
| 轨道倾角: | 69.999° |
| 近地点辐角 | 263.844° |
| 升交点赤经 | 214.043° |
| 平近点角 | 96.231° |
| 近地点: | 569.609km |
| 远地点: | 574.533km |
| 周期: | 96.107分钟 |
| 每日圈数: | 14.983253 |